Retour au catalogue

ONEWEB-0434

ActifCommunicationsPO
NORAD 51631·PAYLOAD·🇬🇧 United Kingdom

Lancé Feb 10, 2022 depuis Guiana Space Centre

Loading…

Prochains Passages (prochaines 24 heures)

TLE

FraisSource: CelesTrak SupGP

Époque: Sep 14, 2026, 23:48 UTC

1 51631C 22012K   26257.99218009 -.00002904  00000+0 -83295-2 0  2575
2 51631  87.8908  18.4138 0002087 119.8970 275.7051 13.10375709    19

Suivez ONEWEB-0434 en temps réel avec AllMySat

Download on the App Store